Location: Kott?ru
(16.6209°N, 80.6208°E)
Time: 00:03:08
(UTC+00:00)

Tiangong - Visible Passes

Search period start: 31 January 2023 00:00
Search period end: 10 February 2023 00:00
Orbit: 383 x 386 km, 41.5° (Epoch: 30 January)

Date Brightness Start Highest point End Pass type
(mag) Time Alt. Az. Time Alt. Az. Time Alt. Az.
31 Jan -0.3 13:34:30 10° NNW 13:36:04 17° NNE 13:36:04 17° NNE visible
01 Feb -0.3 14:10:57 10° WNW 14:12:40 29° WNW 14:12:40 29° WNW visible
02 Feb -1.8 13:11:26 10° NW 13:14:27 45° NE 13:17:16 12° ESE visible
03 Feb 0.3 13:48:56 10° W 13:51:29 23° SW 13:54:03 10° S visible
08 Feb 0.9 00:40:17 10° S 00:42:24 17° SE 00:44:32 10° E visible
